DW4691 Weather Reports


Display with metric or nautical units.
time (UTC)temp
F
wind
direction
speed
MPH
gust
MPH
rain 1hr
in
rain 24hr
in
rain mn
in
humidity
%
barometer
mb
20260507234548 75 0 0.0 1.0 0.00 0.00 0.00 69 1013.8
20260507233044 76 0 0.0 3.0 0.00 0.00 0.00 71 1013.8
20260507231559 76 0 0.0 3.0 0.00 0.00 0.00 69 1013.9
20260507230044 77 63 0.0 1.0 0.00 0.00 0.00 72 1013.7
20260507224557 77 0 0.0 2.0 0.00 0.00 0.00 72 1013.5
20260507223050 77 0 0.0 2.0 0.00 0.00 0.00 70 1013.2
20260507221547 77 0 0.0 3.0 0.00 0.00 0.00 69 1013.3
20260507220051 77 0 0.0 1.0 0.00 0.00 0.00 72 1013.5
20260507214542 77 0 0.0 2.0 0.00 0.00 0.00 70 1013.7
20260507213104 77 0 0.0 3.0 0.00 0.00 0.00 73 1013.7
20260507211544 76 0 0.0 2.0 0.00 0.00 0.00 71 1013.7
20260507210053 77 69 0.0 5.0 0.00 0.00 0.00 68 1014.0
20260507204600 77 0 0.0 3.0 0.00 0.00 0.00 71 1014.1
20260507203056 77 132 0.0 0.0 0.00 0.00 0.00 70 1014.2
20260507201555 77 0 0.0 5.0 0.00 0.00 0.00 69 1014.2
20260507200051 77 0 0.0 4.0 0.00 0.00 0.00 69 1014.4
20260507194549 76 0 0.0 1.0 0.00 0.00 0.00 69 1014.8
20260507193052 76 0 0.0 6.0 0.00 0.00 0.00 69 1014.5
20260507191552 75 17 0.0 2.0 0.00 0.00 0.00 70 1015.0
20260507190056 75 0 0.0 2.0 0.00 0.00 0.00 71 1015.4
20260507184551 74 0 0.0 3.0 0.00 0.02 0.00 72 1015.5
20260507183059 74 151 0.0 5.0 0.00 0.02 0.00 74 1015.6
20260507181549 73 0 0.0 3.0 0.00 0.02 0.00 74 1015.8
20260507180053 72 0 0.0 3.0 0.00 0.02 0.00 74 1015.9
20260507174555 71 54 0.0 3.0 0.00 0.07 0.00 75 1016.2
20260507173051 70 0 0.0 3.0 0.00 0.07 0.00 79 1016.7
20260507171544 69 0 0.0 3.0 0.00 0.07 0.00 78 1016.8
20260507170043 69 0 0.0 2.0 0.00 0.07 0.00 77 1016.6
20260507164541 69 0 0.0 4.0 0.00 0.07 0.00 77 1016.6
20260507163048 68 118 0.0 2.0 0.00 0.07 0.00 78 1016.4
20260507161545 67 0 0.0 4.0 0.00 0.07 0.00 82 1016.2
20260507160051 66 0 0.0 3.0 0.00 0.07 0.00 81 1015.9
20260507154544 65 0 0.0 4.0 0.00 0.07 0.00 81 1016.0
20260507153049 65 36 0.0 2.0 0.00 0.07 0.00 84 1016.3
20260507151549 64 0 0.0 4.0 0.00 0.07 0.00 84 1016.3
20260507150055 64 0 0.0 2.0 0.00 0.07 0.00 85 1016.1
20260507144552 63 0 0.0 2.0 0.00 0.07 0.00 86 1015.9
20260507143112 63 0 0.0 4.0 0.00 0.07 0.00 86 1016.2
20260507141554 63 175 0.0 5.0 0.00 0.07 0.00 86 1016.0
20260507140108 63 0 0.0 4.0 0.00 0.07 0.00 87 1016.0
20260507134550 63 0 0.0 1.0 0.00 0.07 0.00 87 1016.1
20260507133048 63 0 0.0 2.0 0.00 0.07 0.00 87 1016.2
20260507131603 63 0 0.0 1.0 0.00 0.07 0.00 86 1016.3
20260507130051 63 0 0.0 1.0 0.00 0.07 0.00 87 1016.3
20260507124552 64 0 0.0 2.0 0.00 0.07 0.00 87 1016.3
20260507123057 64 0 0.0 2.0 0.00 0.07 0.00 87 1016.0
20260507121550 64 0 0.0 3.0 0.00 0.07 0.00 87 1015.3
20260507120048 64 0 0.0 0.0 0.00 0.07 0.00 86 1014.6
20260507114551 64 0 0.0 2.0 0.00 0.07 0.00 86 1014.7
20260507113044 64 0 0.0 1.0 0.00 0.07 0.00 86 1014.5
20260507111548 65 0 0.0 0.0 0.00 0.07 0.00 88 1014.5
20260507110043 65 0 0.0 1.0 0.00 0.07 0.00 88 1014.1
20260507104550 65 0 0.0 0.0 0.00 0.07 0.00 87 1013.9
20260507103046 65 0 0.0 1.0 0.00 0.07 0.00 87 1013.8
20260507101553 65 0 0.0 2.0 0.00 0.07 0.00 87 1013.7
20260507100051 65 0 0.0 1.0 0.00 0.07 0.00 87 1013.5
20260507094546 65 0 0.0 2.0 0.00 0.07 0.00 87 1013.5
20260507093056 65 0 0.0 2.0 0.00 0.07 0.00 87 1013.0
20260507091550 66 0 0.0 3.0 0.00 0.07 0.00 87 1013.1
20260507090045 66 0 0.0 2.0 0.00 0.07 0.00 87 1013.1
20260507084551 65 0 0.0 1.0 0.00 0.07 0.00 87 1013.1
20260507083049 65 0 0.0 2.0 0.00 0.07 0.00 87 1012.9
20260507081544 65 0 0.0 1.0 0.00 0.07 0.00 87 1013.1
20260507080113 65 0 0.0 2.0 0.00 0.07 0.00 87 1013.4
20260507074545 65 0 0.0 2.0 0.00 0.07 0.00 86 1013.2
20260507073058 66 0 0.0 0.0 0.00 0.07 0.00 86 1013.6
20260507071559 66 0 0.0 2.0 0.00 0.07 0.00 85 1013.3
20260507070048 66 0 0.0 2.0 0.00 0.07 0.00 85 1013.7
20260507064551 66 0 0.0 0.0 0.00 0.07 0.00 85 1013.6
20260507063046 66 0 0.0 2.0 0.00 0.07 0.00 85 1013.8
20260507061552 66 0 0.0 2.0 0.00 0.07 0.00 84 1013.6
20260507060054 67 0 0.0 4.0 0.00 0.07 0.00 84 1013.3
20260507054552 67 0 0.0 3.0 0.00 0.07 0.00 84 1013.4
20260507053049 67 0 0.0 3.0 0.00 0.07 0.00 83 1013.5
20260507051546 67 0 0.0 2.0 0.00 0.07 0.00 82 1013.4
20260507050044 68 0 0.0 2.0 0.00 0.07 0.00 84 1013.5
20260507044542 68 0 0.0 4.0 0.00 0.07 0.07 83 1013.4
20260507043047 68 0 0.0 0.0 0.00 0.07 0.07 84 1013.1
20260507041545 69 0 0.0 2.0 0.00 0.07 0.07 84 1013.0
20260507040057 69 0 0.0 0.0 0.00 0.07 0.07 84 1013.1
20260507034553 69 0 0.0 0.0 0.00 0.07 0.07 83 1013.2
20260507033045 70 0 0.0 0.0 0.00 0.07 0.07 83 1013.2
20260507031541 70 0 0.0 0.0 0.00 0.07 0.07 84 1012.8
20260507030048 70 0 0.0 2.0 0.00 0.07 0.07 83 1012.5
20260507024544 70 0 0.0 3.0 0.00 0.07 0.07 83 1012.0
20260507023044 71 0 0.0 3.0 0.00 0.07 0.07 83 1011.7
20260507021546 71 0 0.0 2.0 0.00 0.07 0.07 83 1011.3
20260507020100 71 0 0.0 0.0 0.00 0.07 0.07 85 1010.9
20260507014603 71 0 0.0 0.0 0.00 0.07 0.07 85 1010.7
20260507013053 71 0 0.0 0.0 0.00 0.07 0.07 85 1010.4
20260507011602 72 0 0.0 2.0 0.00 0.07 0.07 84 1010.2
20260507010050 73 0 0.0 2.0 0.00 0.07 0.07 84 1009.9
20260507004551 73 0 0.0 0.0 0.00 0.07 0.07 84 1009.6
20260507003047 74 0 0.0 6.0 0.00 0.07 0.07 84 1009.5
20260507001612 75 0 0.0 6.0 0.00 0.07 0.07 84 1009.3
20260507000100 76 0 0.0 2.0 0.00 0.07 0.07 85 1009.0